#timestamp,LO_Frequency,Hit,StdDev 
1629446415.3,286047003.5,P
1629446435.2,286047006.0,P
1629446455.0,286047002.9,N
1629446455.9,286047002.9,N
1629446475.8,286047004.8,Y
1629446495.6,286047001.9,P
1629446515.4,286047002.2,N
1629446535.3,286047001.9,N
1629446555.1,286047001.9,N
1629446556.0,286047001.9,Y
1629446575.8,286047000.7,P
1629446595.7,286047001.0,N
1629446615.5,286047001.2,N
1629446635.4,286046999.0,N
1629446655.2,286046999.0,N
1629446675.0,286047000.7,N
1629446675.9,286047000.7,N
1629446695.8,286046998.1,N
1629446715.6,286047000.7,N
1629446735.4,286046999.2,N
1629446755.3,286046999.5,N
1629446775.1,286046997.4,N
1629446795.9,286046997.5,N
1629446815.7,286046997.6,N
1629446835.5,286046995.4,Y
1629446855.4,286046995.0,P
1629446875.2,286046995.0,N
1629446895.1,286046997.3,N
1629446896.0,286046997.3,N
1629446915.8,286046997.8,N
1629446935.6,286046995.4,N
1629446955.5,286046995.7,N
1629446975.3,286046993.8,Y
1629446995.2,286046999.4,P
1629447015.9,286047001.1,N
1629447035.7,286047000.8,N
1629447055.6,286046998.5,N
1629447075.4,286046997.2,N
1629447095.2,286046995.0,Y
1629447115.1,286046997.1,P
1629447116.0,286046997.1,P
1629447135.8,286046997.5,N
1629447155.7,286046996.0,Y
1629447175.5,286046996.8,P
1629447195.4,286046997.7,P
1629447215.2,286046997.1,P
1629447235.0,286046997.7,Y
1629447235.9,286046997.7,P
1629447255.8,286046997.1,P
1629447275.6,286046998.0,P
1629447295.5,286046997.6,Y
1629447315.3,286046998.4,P
1629447335.1,286046999.5,N
1629447355.9,286046998.6,N
1629447375.7,286046999.5,N
1629447395.6,286046997.1,Y
1629447415.4,286047001.2,P
1629447435.2,286047000.5,N
1629447455.1,286047000.5,N
1629447456.0,286047000.5,N
1629447475.8,286047002.7,Y
1629447495.7,286047000.4,P
1629447515.5,286047000.3,P
1629447535.3,286047000.9,P
1629447555.2,286046998.5,Y
1629447575.0,286047001.1,P
1629447575.9,286047001.1,P
1629447595.8,286046998.5,P
1629447615.6,286046999.4,N
1629447635.4,286046998.9,N
1629447655.3,286046996.5,Y
1629447675.1,286046999.1,P
1629447695.9,286046998.4,P
1629447715.7,286047000.6,N
1629447735.5,286047002.3,N
1629447755.4,286047002.3,N
1629447775.2,286047000.2,N
1629447795.0,286047002.3,N
1629447795.9,286047002.3,N
1629447815.8,286047002.7,N
1629447835.6,286047001.3,N
1629447855.5,286046999.7,N
1629447875.3,286046999.7,N
1629447895.1,286047000.9,N
1629447915.9,286047000.6,N
1629447935.7,286046998.2,N
1629447955.5,286046999.0,N
1629447975.4,286046999.5,N
1629447995.2,286046998.2,N
1629448015.0,286046998.2,N
1629448016.0,286046998.2,N
1629448035.8,286046998.4,N
1629448055.6,286046998.1,N
1629448075.5,286046999.9,N
1629448095.3,286047000.0,N
1629448115.1,286047000.1,N
1629448135.9,286047000.6,N
1629448155.7,286047000.5,N
1629448175.6,286047002.4,N
1629448195.4,286047000.1,N
1629448215.2,286047000.3,N
1629448235.1,286046998.7,N
1629448236.0,286046998.7,N
1629448255.8,286046998.7,N
1629448275.7,286046998.7,N
1629448295.5,286047000.3,N
1629448315.3,286046999.9,N
1629448335.2,286046999.8,N
1629448355.0,286046999.9,N
1629448355.9,286046999.9,N
1629448375.8,286047000.9,N
1629448395.6,286047000.3,N
1629448415.4,286047000.3,N
1629448435.3,286047000.6,N
1629448455.1,286047002.7,N
1629448475.8,286047002.0,N
1629448495.7,286047001.7,N
1629448515.5,286047004.3,Y
1629448535.4,286047001.9,P
1629448555.2,286047001.8,N
1629448575.0,286047001.5,N
1629448575.9,286047001.5,N
1629448595.8,286047001.8,N
1629448615.6,286047003.9,Y
1629448635.4,286047002.4,P
1629448655.3,286046999.7,N
1629448675.1,286046999.7,N
1629448695.9,286046999.8,N
1629448715.7,286047000.9,N
1629448735.5,286047001.1,N
1629448755.4,286047001.0,N
1629448775.2,286046998.6,N
1629448795.0,286046999.8,N
1629448795.9,286046999.8,N
1629448815.8,286046999.7,N
1629448835.6,286047002.7,N
1629448855.5,286047000.0,N
1629448875.3,286047002.4,N
1629448895.1,286047002.5,N
1629448915.9,286047002.8,N
1629448935.7,286047000.2,N
1629448955.5,286047002.8,N
1629448975.4,286046999.7,N
1629448995.2,286046999.7,N
1629449015.1,286046999.9,N
1629449016.0,286046999.9,N
1629449035.8,286047001.7,N
1629449055.6,286047001.3,N
1629449075.5,286047003.4,N
1629449095.3,286047003.6,N
1629449115.1,286047001.8,N
1629449135.9,286047002.1,N
1629449155.7,286046999.8,N
1629449175.6,286047002.5,N
1629449195.2,286047002.8,N
1629449215.0,286046999.7,N
1629449215.9,286046999.7,N
1629449235.8,286047000.1,N
1629449255.6,286047001.9,N
1629449275.5,286047004.4,Y
1629449295.3,286047002.8,P
1629449315.1,286046998.5,N
1629449335.9,286047000.4,N
1629449355.7,286047001.0,N
1629449375.5,286047002.1,N
1629449395.4,286047002.5,N
1629449415.2,286047004.1,N
1629449435.1,286047001.5,N
1629449436.0,286047001.5,N
1629449455.8,286047002.5,N
1629449475.6,286046999.7,N
1629449495.5,286047000.8,N
1629449515.3,286047000.0,N
1629449535.1,286046999.8,N
1629449555.9,286046999.9,N
1629449575.7,286047002.3,N
1629449595.6,286047000.2,N
1629449615.4,286047002.7,N
1629449635.2,286047000.2,N
1629449655.1,286047002.1,N
1629449656.0,286047002.1,N
1629449675.8,286047001.6,N
1629449695.7,286047002.8,N
1629449715.5,286047002.7,N
1629449735.3,286047001.0,N
1629449755.2,286046998.5,N
1629449775.0,286046998.9,N
1629449775.9,286046998.9,N
1629449795.7,286047000.0,N
1629449815.6,286047000.2,N
1629449835.4,286047000.8,N
1629449855.3,286046998.3,N
1629449875.1,286047001.0,N
1629449876.0,286047001.0,N
1629449895.8,286046998.5,N
1629449915.7,286046999.2,N
1629449935.5,286046996.9,N
1629449955.3,286046999.3,N
1629449975.2,286046998.8,N
1629449995.0,286046998.2,N
1629449995.9,286046998.2,N
